TIME,DELAY(SENSOR),PRES,OXYGEN,RAWTEMP,T(OPTODE),TCPHASE,FLUOR,BETA(BETA700),BETA(BETA412),BETA(BETA440),CDOM,C(CSC),ED(ED411.90),ED(ED443.80),ED(ED489.40),ED(ED554.70),LU(LU412.20),LU(LU443.80),LU(LU489.40),LU(LU555.00),COMP,TILTX,TILTY,CHECK
1364596901,5807,835.9000244140625000,193.2830963134765600,494.8413085937500000,7.6894488334655760,38.2313499450683600,87,1236,93,77,78,11312,2146963090,2147517037,2147291922,2147509897,2147083154,2146924315,2147714605,2147120420,359,-1,8,39022
1364600497,5803,958.8900146484375000,235.8946075439453000,543.4019775390625000,6.1763730049133300,36.6343116760253900,91,1266,94,76,79,11317,2146960384,2147518884,2147296658,2147520667,2147088731,2146916288,2147721609,2147123931,2967,-1,8,14769
1364604097,5803,988.5599975585938000,249.1759033203125000,554.2454833984375000,5.8361110687255860,36.1578102111816400,90,1280,94,76,80,11315,2146962450,2147515565,2147298688,2147518784,2147087533,2146914797,2147725814,2147119524,1724,-1,8,18885
1364607697,5806,990.2399902343750000,254.1045074462890600,559.6677856445312000,5.6656107902526855,36.0164489746093750,92,1292,95,76,80,11309,2146965522,2147519067,2147299785,2147522523,2147089133,2146919341,2147725933,2147123885,3003,-1,8,22034
1364611297,5802,1003.8800048828125000,258.1698913574219000,560.2791748046875000,5.6463742256164550,35.8328704833984400,92,1298,97,76,81,11306,2146965293,2147518710,2147299337,2147521197,2147089261,2146919908,2147732315,2147120950,3172,-1,8,35536
1364614897,5806,1013.7800292968750000,257.2467041015625000,560.4014892578125000,5.6425251960754395,35.8789100646972660,91,1298,95,77,79,11305,2146964251,2147521609,2147302089,2147523748,2147086921,2146919158,2147732973,2147122715,3352,-1,8,59543
1364618497,5807,1008.0200195312500000,255.5897979736328000,559.0244140625000000,5.6858577728271480,35.9334297180175800,91,1300,94,77,79,11304,2146961444,2147518811,2147298422,2147525302,2147087067,2146922578,2147729334,2147119698,577,-1,8,9273
1364622097,5807,1009.0800170898438000,257.4749145507812500,560.7207031250000000,5.6324791908264160,35.8742713928222660,92,1307,97,80,80,11182,2146963858,2147514331,2147296603,2147523721,2147090624,2146920100,2147729728,2147121773,288,-1,8,49860
1364625697,5807,1014.0399780273438000,256.0465087890625000,560.5413818359375000,5.6381211280822750,35.9391212463378900,92,1308,95,77,79,11179,2146965805,2147519570,2147299382,2147522477,2147088530,2146916480,2147727670,2147122678,723,-1,8,1199
1364629297,5808,1010.6400146484375000,253.9326934814453000,559.8693847656250000,5.6592688560485840,36.0280799865722660,92,1312,95,76,80,11177,2146962761,2147519451,2147298916,2147526409,2147091035,2146918582,2147727222,2147119488,16,0,8,10444
1364632897,5807,1016.6799926757812000,255.1829071044922000,560.2241821289062000,5.6481060981750490,35.9743499755859400,90,1315,96,77,79,11176,2146965805,2147519058,2147298404,2147523035,2147087259,2146919012,2147726272,2147118116,883,-1,8,5784
1364636497,5805,1009.6599731445312000,253.6535949707031200,560.4539794921875000,5.6408710479736330,36.0526199340820300,92,1319,96,77,80,11173,2146962505,2147518692,2147298596,2147523840,2147086582,2146918866,2147733129,2147119844,3337,-1,8,56692
1364640097,5808,1012.3099975585938000,253.1902008056640600,557.3975219726562000,5.7370300292968750,36.0191993713378900,92,1319,96,76,79,11174,2146964178,2147517485,2147299657,2147520338,2147085997,2146925065,2147723913,2147120420,147,-1,8,61568
1364643697,5805,1008.3599853515625000,252.9197998046875000,558.8372192382812000,5.6917481422424320,36.0582695007324200,92,1333,95,77,79,11166,2146963017,2147520576,2147300635,2147520777,2147090148,2146922166,2147726144,2147121453,402,-1,8,60516
1364647297,5806,1011.0399780273438000,257.3055114746094000,561.9763183593750000,5.5929551124572750,35.9051094055175800,92,1333,95,80,79,11169,2146962212,2147518729,2147302829,2147522633,2147089920,2146919643,2147729005,2147118381,3542,-1,8,31821
1364650897,5804,1004.0200195312500000,256.2369079589844000,562.7570190429688000,5.5683689117431640,35.9705009460449200,91,1337,96,77,80,11157,2146965275,2147519488,2147302674,2147520658,2147088246,2146916379,2147728832,2147122432,3530,-1,8,4080
1364654497,5805,1002.0599975585938000,260.2860107421875000,564.7805786132812000,5.5046248435974120,35.8156394958496100,91,1340,96,76,80,11153,2146961316,2147520292,2147300461,2147522514,2147090349,2146919789,2147727908,2147121828,3376,-1,8,37864
1364658097,5804,1007.9600219726562000,261.2905883789062500,564.8660278320312000,5.5019378662109375,35.7698287963867200,93,1345,94,76,79,11153,2146961874,2147523757,2147298596,2147520365,2147090770,2146922276,2147729673,2147118564,3545,-1,8,12871
1364661697,5806,1004.9699707031250000,262.8854064941406000,565.0587768554688000,5.4958610534667970,35.6987495422363300,93,1343,95,77,79,11169,2146963136,2147521517,2147299830,2147520310,2147089106,2146920402,2147728749,2147120146,3323,-1,8,28260
1364665297,5806,1017.9500122070312000,262.8021850585937500,564.9486083984375000,5.4993338584899900,35.7010498046875000,93,1351,95,76,78,11163,2146965366,2147518985,2147300982,2147523766,2147086793,2146920548,2147732790,2147121362,3410,-1,8,26796
1364668897,5806,1007.9299926757812000,262.2121887207031000,564.5836791992188000,5.5108299255371090,35.7213287353515600,93,1356,95,77,80,11162,2146962276,2147516397,2147303451,2147523008,2147087241,2146918656,2147730459,2147118326,3150,0,8,33723
1364672497,5807,1009.2500000000000000,262.0351867675781000,564.6309204101562000,5.5093441009521480,35.7305603027343750,92,1351,95,76,79,11162,2146964361,2147521353,2147300187,2147521426,2147087149,2146913188,2147730587,2147122240,567,-1,8,51106
1364676097,5806,1011.9600219726562000,261.9122924804687500,564.5889282226562000,5.5106678009033200,35.7359199523925800,94,1360,95,75,80,11167,2146962486,2147518016,2147304256,2147523410,2147089673,2146923373,2147733952,2147119963,636,-1,8,27508
1364679697,5807,1011.1099853515625000,262.4815063476562500,564.4741821289062000,5.5142798423767090,35.7071685791015600,93,1362,96,76,79,11142,2146962688,2147520283,2147298413,2147524470,2147090514,2146920521,2147726454,2147121764,1559,-1,8,46618
1364683297,5806,1014.9799804687500000,260.2903137207031000,564.4490966796875000,5.5150718688964840,35.8092384338378900,94,1360,95,76,80,11147,2146961654,2147518866,2147300992,2147527094,2147089197,2146918198,2147731254,2147123163,2950,-1,8,18208
1364686897,5806,1012.2000122070312000,261.3345031738281000,564.3690795898438000,5.5175909996032715,35.7589187622070300,92,1367,96,76,80,11145,2146962432,2147518454,2147300681,2147525906,2147087570,2146915629,2147731657,2147119552,3563,-1,8,19693
1364690497,5807,1011.7899780273438000,261.4494934082031000,563.8505249023438000,5.5339279174804690,35.7438316345214840,94,1372,96,75,78,11143,2146962313,2147517641,2147301997,2147524004,2147089444,2146915849,2147728603,2147122550,187,-1,8,47318
1364694097,5806,1016.2899780273438000,259.1760864257812500,562.3640747070312000,5.5807399749755860,35.8235893249511700,94,1374,96,77,79,11139,2146963849,2147519808,2147298889,2147521481,2147088310,2146921728,2147730258,2147119204,3504,0,8,23461
1364697697,5809,1017.3800048828125000,259.5086059570312500,562.2028808593750000,5.5858149528503420,35.8051910400390600,94,1379,95,76,79,11110,2146963958,2147518564,2147301412,2147522459,2147087606,2146918747,2147730980,2147119012,58,0,8,34062
1364701297,5805,1018.1500244140625000,259.0112915039062500,564.0368041992188000,5.5280609130859375,35.8619308471679700,93,1378,98,76,79,11106,2146962834,2147518354,2147300992,2147525549,2147087963,2146918921,2147726884,2147120384,3300,0,8,48476
1364704897,5809,1013.4299926757812000,258.9558105468750000,564.1489257812500000,5.5245299339294430,35.8665809631347660,94,1377,95,77,79,11105,2146966226,2147518500,2147302052,2147523373,2147087917,2146916388,2147727625,2147120914,31,-1,8,25112
1364708497,5807,1010.4699707031250000,262.0015869140625000,565.7562255859375000,5.4738850593566895,35.7529106140136700,92,1379,94,76,79,11100,2146963465,2147518866,2147298532,2147522404,2147088000,2146921846,2147730157,2147123620,852,-1,8,4284
1364712097,5804,1013.5499877929688000,262.1624145507812500,566.1420288085938000,5.4617228507995605,35.7522811889648440,94,1382,96,76,79,11104,2146964507,2147516187,2147296384,2147527067,2147088969,2146917677,2147728384,2147121526,3514,-1,8,36037
1364715697,5806,1013.4299926757812000,263.1296081542969000,565.4321289062500000,5.4840979576110840,35.6946983337402340,95,1391,96,77,79,11099,2146964443,2147518619,2147299090,2147521984,2147091840,2146919881,2147727780,2147118692,3405,0,8,35041
1364719297,5806,1013.4400024414062000,263.0053100585937500,566.1442260742188000,5.4616551399230960,35.7129592895507800,94,1389,95,77,79,11099,2146964342,2147519881,2147302217,2147522578,2147085997,2146919232,2147729316,2147120877,2786,0,8,27433
1364722897,5805,1012.2600097656250000,261.6856994628906000,565.8472900390625000,5.4710140228271480,35.7697105407714840,94,1391,170,77,79,11097,2146965942,2147516617,2147299337,2147526162,2147091849,2146923675,2147728411,2147122048,3147,0,8,2614
1364726497,5805,1024.7800292968750000,259.6278076171875000,564.2224121093750000,5.5222129821777340,35.8362693786621100,93,1394,96,76,79,11093,2146964032,2147516973,2147299309,2147521920,2147088923,2146918390,2147732132,2147122596,323,-1,8,11075
1364730097,5804,1016.7600097656250000,258.3074035644531000,563.3463134765625000,5.5498099327087400,35.8822288513183600,96,1395,95,76,79,11092,2146962532,2147516854,2147300608,2147524608,2147087021,2146917174,2147729746,2147123556,2424,0,8,33097
1364733697,5805,1012.0999755859375000,261.8333129882812500,565.4957885742188000,5.4820919036865230,35.7557792663574200,94,1398,97,77,79,11093,2146963355,2147520173,2147299968,2147524589,2147087341,2146919926,2147728155,2147119716,3535,-1,8,56390
1364737297,5808,1013.4000244140625000,263.4541931152344000,565.8214111328125000,5.4718298912048340,35.6864204406738300,94,1400,97,77,79,11095,2146961581,2147517686,2147299648,2147523382,2147087232,2146918345,2147731885,2147120658,620,-1,8,25726
1364740555,5805,1022.0200195312500000,264.5382995605469000,566.1649780273438000,5.4609999656677250,35.6427688598632800,93,1398,94,75,79,11274,2146964900,2147518902,2147301732,2147521755,2147086884,2146921490,2147727954,2147119003,3221,-1,8,10250
